カタログに戻る

FENGYUN 1C DEB

運用中SSO
NORAD 30766·DEBRIS·🇨🇳 China

打ち上げ May 10, 1999 から Taiyuan Satellite Launch Center

Loading…

次のパス (今後24時間)

TLE

最新Source: Space-Track

元期: Sep 14, 2026, 05:53 UTC

1 30766U 99025AUC 26257.24549863  .00000711  00000-0  41262-3 0  9997
2 30766  98.6835 252.8763 0083016  13.8948  52.8412 14.10131953666791

AllMySatでFENGYUN 1C DEBをリアルタイム追跡

Download on the App Store